Showing default

MUOS 5, 41622

Orbit data source: Space-Track

MUOS 5, 41622 is a payload satellite owned by SPAWAR Pacific (US) in GEO that was launched on Fri, 24 Jun 2016 UTC via an ATLAS V 551 launch vehicle from the Air Force Eastern Test Range (AFETR). Payloads include a variety of satellites, spacecraft, and rockets equipped with specific instruments for various scientific and technological missions. These include communications satellites like Starlink; space stations such as the ISS; scientific satellites like the Hubble; Earth observation satellites from companies like Planet Labs, Umbra, and HawkEye 360; GPS; miniature CubeSats for education and research; and military/defense satellites.

Loading next visibility...
MUOS 5 details
Identifier
41622, 2016-041A
Orbit
GEO
Last TLE update2 days ago
Origin
Flag of USSPAWAR Pacific (US)
ManufacturerLMSS/LMCSS
MissionOperational Defense Communications
Bus & MotorA2100, BT-4
Mass6,800 kg wet, 3,800 kg dry
Launch date (UTC)
2016-06-24 (9 years ago)
Launch vehicle
ATLAS V 551
Launch site
Air Force Eastern Test Range (AFETR)
Object type
Payload
Rocket body
Debris
Shape & HBRBox + 2 Pan + 1 Dish, 28.7 m
Radar Cross Section71.298 m², Large (>1 m²)

Expand to show TLE details & history

TLE from 2 days ago
0 MUOS 5
1 41622U 16041A   24360.00811723 -.00000106  00000-0  00000-0 0  9992
2 41622   3.4285 296.8512 0196916 258.1600 156.9954  1.00272417 31687
Epoch: 2024-12-25T00:11Z
Definitive object data (Epoch: 2024-12-25T00:11:41.328Z)
Latitude2.84692°
Longitude-104.12063°
Altitude36,548.712 km
Speed3.02 km/s
True Right ascension23h 31m 14s
True Declination2° 50' 39"
Sunlit
Object was in daylight at TLE epoch
Visualization TLE readout
Latitude1.90862°
Longitude-126.12932°
Altitude36,368.921 km
Speed3.033 km/s
Apparent Right ascension22h 04m 05s
Apparent Declination-4° 00' 19"
Sunlit
Object is in daylight
Visualization observer readout
Local Sidereal Time21:56:18
Azimuth177.204° S
Elevation46.042°
Doppler factor1
Orbital elements
Apogee altitude36,617.792 km
Perigee altitude34,957.175 km
Semi-major axis42,165.62 km
Eccentricity0.0196916
Inclination3.4285°
RAAN296.8512°
Arg. of periapsis258.16°
True anomaly157.85766°
Mean anomaly156.9954°
Eccentric anomaly157.42846°
Mean motion0.25067 °/min
BSTARUnknown
Orbital period1436.14 mins
Loading historical data...
41622 neighbors
Authenticating...
Loading maneuver chart data...
Loading historical data...
Loading historical data...
Loading historical data...
Loading historical data...
Loading historical data...
Loading historical data...
Loading historical data...
Other satellites on launch #41 in the year 2016 (2016-06-24 UTC)

MUOS 5 Visibility forecast

Observer location: undefined°, undefined

Span
Click to sort rows by Start time (UTC) header in descending order
Start Az.
Max El. time (UTC)
Max El. Az.
Max El.
End time (UTC)
End Az.
1440 mins2024-12-26 22:33:08.464Z177.205° S2024-12-27 02:24:08.464Z180.458° SSW36.538°2024-12-27 22:33:08.464Z177.245° S
|